Snow/Ice From: 16-12-2017 16:00 Until: 17-12-2017 16:00 warning for: Snow/Ice Level: Yellow info button

Although rather usual in this region, locally or potentially dangerous phenomena are expected. (such as local winds, summer thunderstorms, rising streams or high waves) Be aware and pay attention to the latest weather updates, especially if you carry out activities exposed to weather or close to a stream or shoreline. 


Meteo18 Weather Cam more information Meteo18 Weather Cam


Thunder radar more information blitzortung!


warning for Snow/Ice more information rain snow radar


Visit our other weather sites:

Template documentation
and downloads

And another site



Weather Underground History page Text

Daily Summary for February 21, 2017 Units:  English    Metric   Both
« Previous Day
Next Day »
Daily Weekly Monthly Yearly Custom
  High: Low: Average:
Temperature: 52.2 °F 47.7 °F 49.8 °F
Dew Point: 49.8 °F 46.9 °F 48.4 °F
Humidity: 97 % 91 % 95 %
Wind Speed: 12 mph 0 mph 5 mph
Wind Gust: 17 mph - -
Wind:- - WSW
Pressure: 30.3 in 30.2 in -
Precipitation: 0 in    
Historical Graphs
 
 
Tabular Data for February 21, 2017
Time Temperature Dew Point Pressure Wind Wind Speed Wind Gust Humidity Rainfall Rate (Hourly)
00:02 47.7 °F 46.9 °F 30.3 in SW 3 mph 7 mph 97 % 0 in
00:07 47.8 °F 46.9 °F 30.3 in SSW 4 mph 12 mph 97 % 0 in
00:12 47.8 °F 46.9 °F 30.3 in SW 5 mph 12 mph 97 % 0 in
00:17 47.8 °F 46.9 °F 30.3 in WSW 4 mph 12 mph 97 % 0 in
00:22 47.8 °F 46.9 °F 30.3 in SW 1 mph 12 mph 97 % 0 in
00:27 47.8 °F 46.9 °F 30.3 in SSW 5 mph 12 mph 97 % 0 in
00:32 48 °F 47.1 °F 30.3 in SSW 3 mph 10 mph 97 % 0 in
00:37 48 °F 47.1 °F 30.3 in SW 5 mph 10 mph 97 % 0 in
00:42 48 °F 47.1 °F 30.3 in SW 3 mph 11 mph 97 % 0 in
00:47 48 °F 47.1 °F 30.3 in SW 6 mph 11 mph 97 % 0 in
00:52 48 °F 47.1 °F 30.3 in SW 2 mph 11 mph 97 % 0 in
00:57 48.2 °F 47.3 °F 30.3 in WSW 5 mph 10 mph 97 % 0 in
01:02 48.2 °F 47.3 °F 30.3 in SSW 3 mph 10 mph 97 % 0 in
01:07 48.2 °F 47.3 °F 30.3 in SW 5 mph 11 mph 97 % 0 in
01:12 48.4 °F 47.5 °F 30.3 in SSW 4 mph 11 mph 97 % 0 in
01:17 48.4 °F 47.5 °F 30.3 in SSW 4 mph 13 mph 97 % 0 in
01:22 48.4 °F 47.5 °F 30.3 in SSW 4 mph 13 mph 97 % 0 in
01:32 48.4 °F 47.5 °F 30.3 in SW 9 mph 13 mph 97 % 0 in
01:37 48.4 °F 47.5 °F 30.3 in SW 3 mph 12 mph 97 % 0 in
01:42 48.6 °F 47.7 °F 30.3 in SW 3 mph 12 mph 97 % 0 in
01:47 48.6 °F 47.7 °F 30.3 in SW 10 mph 12 mph 97 % 0 in
01:52 48.6 °F 47.7 °F 30.3 in WSW 3 mph 12 mph 97 % 0 in
01:57 48.6 °F 47.7 °F 30.3 in SW 4 mph 12 mph 97 % 0 in
02:02 48.6 °F 47.7 °F 30.3 in SSW 4 mph 12 mph 97 % 0 in
02:07 48.6 °F 47.7 °F 30.3 in SW 8 mph 14 mph 97 % 0 in
02:12 48.6 °F 47.7 °F 30.3 in SW 2 mph 14 mph 97 % 0 in
02:17 48.6 °F 47.7 °F 30.3 in WSW 4 mph 13 mph 97 % 0 in
02:22 48.6 °F 47.7 °F 30.3 in SW 11 mph 13 mph 97 % 0 in
02:32 48.6 °F 47.7 °F 30.3 in SW 4 mph 14 mph 97 % 0 in
02:37 48.6 °F 47.7 °F 30.3 in SW 3 mph 14 mph 97 % 0 in
02:42 48.6 °F 47.7 °F 30.3 in West 7 mph 13 mph 97 % 0 in
02:47 48.6 °F 47.7 °F 30.3 in SW 7 mph 15 mph 97 % 0 in
02:52 48.6 °F 47.7 °F 30.3 in SW 4 mph 15 mph 97 % 0 in
02:57 48.6 °F 47.7 °F 30.3 in WSW 7 mph 15 mph 97 % 0 in
03:02 48.6 °F 47.7 °F 30.3 in WSW 7 mph 15 mph 97 % 0 in
03:07 48.6 °F 47.7 °F 30.3 in WSW 4 mph 15 mph 97 % 0 in
03:12 48.6 °F 47.7 °F 30.3 in SSW 5 mph 15 mph 97 % 0 in
03:17 48.6 °F 47.7 °F 30.3 in WSW 4 mph 16 mph 97 % 0 in
03:22 48.6 °F 47.7 °F 30.3 in West 4 mph 16 mph 97 % 0 in
03:32 48.6 °F 47.7 °F 30.3 in West 6 mph 13 mph 97 % 0 in
03:37 48.6 °F 47.7 °F 30.3 in WSW 5 mph 14 mph 97 % 0 in
03:42 48.6 °F 47.7 °F 30.3 in SW 4 mph 14 mph 97 % 0 in
03:47 48.6 °F 47.7 °F 30.2 in WSW 2 mph 15 mph 97 % 0 in
03:52 48.4 °F 47.5 °F 30.2 in West 6 mph 15 mph 97 % 0 in
03:57 48.4 °F 47.5 °F 30.2 in SSW 3 mph 14 mph 97 % 0 in
04:02 48.4 °F 47.5 °F 30.2 in West 9 mph 14 mph 97 % 0 in
04:07 48.4 °F 47.5 °F 30.2 in WSW 9 mph 15 mph 97 % 0 in
04:12 48.4 °F 47.5 °F 30.2 in WSW 9 mph 15 mph 97 % 0 in
04:17 48.4 °F 47.5 °F 30.2 in West 9 mph 15 mph 97 % 0 in
04:22 48.4 °F 47.5 °F 30.2 in WSW 6 mph 15 mph 97 % 0 in
04:32 48.4 °F 47.5 °F 30.2 in WSW 7 mph 14 mph 97 % 0 in
04:37 48.4 °F 47.5 °F 30.2 in West 5 mph 12 mph 97 % 0 in
04:42 48.4 °F 47.5 °F 30.2 in WSW 7 mph 12 mph 97 % 0 in
04:47 48.4 °F 47.5 °F 30.2 in West 8 mph 11 mph 97 % 0 in
04:52 48.4 °F 47.5 °F 30.2 in West 4 mph 11 mph 97 % 0 in
04:57 48.4 °F 47.5 °F 30.2 in West 6 mph 11 mph 97 % 0 in
05:02 48.4 °F 47.5 °F 30.2 in WSW 10 mph 11 mph 97 % 0 in
05:12 48.4 °F 47.5 °F 30.2 in SW 6 mph 11 mph 97 % 0 in
05:17 48.4 °F 47.5 °F 30.2 in SW 6 mph 11 mph 97 % 0 in
05:22 48.6 °F 47.7 °F 30.2 in WSW 6 mph 11 mph 97 % 0 in
05:32 48.6 °F 47.7 °F 30.2 in WSW 12 mph 12 mph 97 % 0 in
05:52 48.6 °F 47.7 °F 30.2 in WSW 9 mph 12 mph 97 % 0 in
06:02 48.6 °F 47.7 °F 30.2 in WSW 5 mph 11 mph 97 % 0 in
06:12 48.6 °F 47.7 °F 30.2 in WSW 7 mph 13 mph 97 % 0 in
06:17 48.6 °F 47.7 °F 30.2 in WNW 2 mph 11 mph 97 % 0 in
06:22 48.4 °F 47.5 °F 30.2 in West 7 mph 11 mph 97 % 0 in
06:32 48.4 °F 47.5 °F 30.2 in WSW 8 mph 11 mph 97 % 0 in
06:42 48.4 °F 47.5 °F 30.2 in SW 7 mph 13 mph 97 % 0 in
06:47 48.4 °F 47.5 °F 30.2 in WNW 5 mph 13 mph 97 % 0 in
06:52 48.4 °F 47.5 °F 30.2 in WSW 5 mph 13 mph 97 % 0 in
07:02 48.4 °F 47.5 °F 30.2 in WNW 6 mph 12 mph 97 % 0 in
07:12 48.6 °F 47.7 °F 30.2 in West 5 mph 10 mph 97 % 0 in
07:17 48.6 °F 47.7 °F 30.2 in WSW 7 mph 11 mph 97 % 0 in
07:22 48.6 °F 47.7 °F 30.2 in WSW 9 mph 11 mph 97 % 0 in
07:32 48.6 °F 47.7 °F 30.2 in West 6 mph 11 mph 97 % 0 in
07:42 48.7 °F 47.8 °F 30.3 in West 6 mph 14 mph 97 % 0 in
07:52 48.7 °F 47.8 °F 30.3 in WSW 9 mph 14 mph 97 % 0 in
07:57 48.7 °F 47.8 °F 30.3 in West 5 mph 12 mph 97 % 0 in
08:02 48.7 °F 47.8 °F 30.3 in West 5 mph 12 mph 97 % 0 in
08:12 48.7 °F 47.8 °F 30.3 in West 4 mph 11 mph 97 % 0 in
08:17 48.7 °F 47.8 °F 30.3 in WSW 6 mph 11 mph 97 % 0 in
08:22 48.7 °F 47.8 °F 30.3 in West 4 mph 11 mph 97 % 0 in
08:32 48.9 °F 48 °F 30.3 in West 5 mph 10 mph 97 % 0 in
08:42 48.9 °F 48 °F 30.3 in WSW 3 mph 10 mph 97 % 0 in
08:47 49.1 °F 48.2 °F 30.3 in WNW 3 mph 10 mph 97 % 0 in
08:52 49.3 °F 48.4 °F 30.3 in West 3 mph 10 mph 97 % 0 in
08:57 49.3 °F 48.4 °F 30.3 in West 5 mph 9 mph 97 % 0 in
09:02 49.5 °F 48.6 °F 30.3 in WSW 11 mph 11 mph 97 % 0 in
09:12 49.6 °F 48.6 °F 30.3 in West 7 mph 11 mph 96 % 0 in
09:17 49.8 °F 48.7 °F 30.3 in West 5 mph 11 mph 96 % 0 in
09:22 49.8 °F 48.7 °F 30.3 in WSW 5 mph 11 mph 96 % 0 in
09:32 50 °F 48.6 °F 30.3 in West 8 mph 13 mph 95 % 0 in
09:42 50 °F 48.6 °F 30.3 in West 7 mph 13 mph 95 % 0 in
09:52 49.8 °F 48.7 °F 30.3 in West 4 mph 14 mph 96 % 0 in
09:57 49.8 °F 48.7 °F 30.3 in WSW 8 mph 14 mph 96 % 0 in
10:07 50 °F 48.9 °F 30.3 in West 7 mph 13 mph 96 % 0 in
10:12 50.2 °F 49.1 °F 30.3 in WSW 6 mph 13 mph 96 % 0 in
10:17 50.2 °F 49.1 °F 30.3 in NW 3 mph 14 mph 96 % 0 in
10:22 50.2 °F 49.1 °F 30.3 in West 6 mph 14 mph 96 % 0 in
10:32 50.4 °F 49.3 °F 30.3 in West 4 mph 14 mph 96 % 0 in
10:37 50.4 °F 49.3 °F 30.3 in WNW 4 mph 12 mph 96 % 0 in
10:42 50.5 °F 49.5 °F 30.3 in WNW 7 mph 12 mph 96 % 0 in
10:47 50.5 °F 49.1 °F 30.3 in WNW 5 mph 11 mph 95 % 0 in
10:52 50.7 °F 49.3 °F 30.3 in WSW 3 mph 11 mph 95 % 0 in
11:02 50.9 °F 49.5 °F 30.3 in West 9 mph 12 mph 95 % 0 in
11:12 51.1 °F 49.5 °F 30.3 in West 5 mph 14 mph 94 % 0 in
11:17 51.1 °F 49.5 °F 30.3 in WSW 5 mph 13 mph 94 % 0 in
11:22 51.3 °F 49.6 °F 30.3 in West 8 mph 13 mph 94 % 0 in
11:27 51.3 °F 49.6 °F 30.3 in WNW 7 mph 13 mph 94 % 0 in
11:32 51.3 °F 49.6 °F 30.3 in West 6 mph 13 mph 94 % 0 in
11:37 51.1 °F 49.1 °F 30.3 in WNW 6 mph 13 mph 93 % 0 in
11:42 51.3 °F 49.3 °F 30.3 in WNW 10 mph 13 mph 93 % 0 in
11:47 51.3 °F 49.3 °F 30.3 in WNW 6 mph 14 mph 93 % 0 in
11:52 51.1 °F 49.5 °F 30.3 in WSW 2 mph 14 mph 94 % 0 in
11:57 51.1 °F 49.5 °F 30.3 in West 3 mph 11 mph 94 % 0 in
12:02 51.1 °F 49.5 °F 30.3 in WNW 5 mph 11 mph 94 % 0 in
12:12 51.3 °F 49.6 °F 30.3 in West 2 mph 10 mph 94 % 0 in
12:17 51.4 °F 49.5 °F 30.3 in WNW 3 mph 8 mph 93 % 0 in
12:22 51.4 °F 49.3 °F 30.3 in SW 2 mph 7 mph 92 % 0 in
12:27 51.6 °F 49.5 °F 30.3 in West 5 mph 7 mph 92 % 0 in
12:32 51.6 °F 49.5 °F 30.3 in WNW 5 mph 12 mph 92 % 0 in
12:37 51.6 °F 49.5 °F 30.3 in WSW 5 mph 12 mph 92 % 0 in
12:42 51.6 °F 49.5 °F 30.3 in West 2 mph 9 mph 92 % 0 in
12:52 51.4 °F 49.5 °F 30.3 in WNW 4 mph 8 mph 93 % 0 in
12:57 51.4 °F 49.5 °F 30.3 in WNW 2 mph 15 mph 93 % 0 in
13:02 51.4 °F 49.5 °F 30.3 in NW 5 mph 15 mph 93 % 0 in
13:07 51.6 °F 49.6 °F 30.3 in West 3 mph 12 mph 93 % 0 in
13:12 51.6 °F 49.6 °F 30.3 in West 4 mph 12 mph 93 % 0 in
13:22 51.6 °F 49.6 °F 30.3 in WNW 7 mph 12 mph 93 % 0 in
13:27 51.6 °F 49.5 °F 30.3 in WNW 3 mph 12 mph 92 % 0 in
13:32 51.6 °F 49.5 °F 30.3 in WSW 8 mph 12 mph 92 % 0 in
13:37 52 °F 49.6 °F 30.3 in WNW 6 mph 12 mph 92 % 0 in
13:42 52 °F 49.6 °F 30.3 in West 5 mph 12 mph 92 % 0 in
13:47 52 °F 49.6 °F 30.3 in WSW 7 mph 13 mph 92 % 0 in
13:52 52 °F 49.6 °F 30.3 in WSW 11 mph 13 mph 92 % 0 in
13:57 52 °F 49.6 °F 30.3 in West 8 mph 15 mph 92 % 0 in
14:02 52 °F 49.6 °F 30.3 in West 10 mph 15 mph 92 % 0 in
14:07 52 °F 49.6 °F 30.2 in NW 8 mph 17 mph 92 % 0 in
14:12 52 °F 49.6 °F 30.2 in WNW 7 mph 17 mph 92 % 0 in
14:17 52.2 °F 49.8 °F 30.2 in SW 7 mph 17 mph 92 % 0 in
14:22 52.2 °F 49.8 °F 30.2 in WSW 9 mph 17 mph 92 % 0 in
14:27 52.2 °F 49.8 °F 30.2 in WSW 9 mph 15 mph 92 % 0 in
14:32 52.2 °F 49.8 °F 30.2 in West 5 mph 15 mph 92 % 0 in
14:37 52.2 °F 49.8 °F 30.2 in West 6 mph 13 mph 92 % 0 in
14:42 52.2 °F 49.8 °F 30.2 in WSW 8 mph 13 mph 92 % 0 in
14:47 52.2 °F 49.6 °F 30.2 in West 5 mph 14 mph 91 % 0 in
14:57 52.2 °F 49.6 °F 30.2 in WSW 8 mph 12 mph 91 % 0 in
15:02 52.2 °F 49.8 °F 30.2 in West 6 mph 12 mph 92 % 0 in
15:07 52 °F 49.6 °F 30.2 in WSW 10 mph 13 mph 92 % 0 in
15:12 52 °F 49.6 °F 30.2 in West 6 mph 13 mph 92 % 0 in
15:17 52 °F 49.6 °F 30.2 in West 4 mph 12 mph 92 % 0 in
15:22 52 °F 49.6 °F 30.2 in West 5 mph 12 mph 92 % 0 in
15:32 52 °F 49.6 °F 30.2 in WSW 7 mph 13 mph 92 % 0 in
15:37 52.2 °F 49.8 °F 30.2 in West 4 mph 10 mph 92 % 0 in
15:42 52.2 °F 49.8 °F 30.2 in WSW 9 mph 10 mph 92 % 0 in
15:47 52 °F 49.6 °F 30.2 in WSW 5 mph 10 mph 92 % 0 in
15:52 52.2 °F 49.8 °F 30.2 in West 6 mph 10 mph 92 % 0 in
15:57 52.2 °F 49.8 °F 30.2 in WSW 7 mph 9 mph 92 % 0 in
16:02 52.2 °F 49.8 °F 30.2 in West 8 mph 9 mph 92 % 0 in
16:07 52.2 °F 49.8 °F 30.2 in West 3 mph 10 mph 92 % 0 in
16:12 52.2 °F 49.8 °F 30.2 in West 5 mph 10 mph 92 % 0 in
16:17 52 °F 49.6 °F 30.2 in West 6 mph 10 mph 92 % 0 in
16:22 52 °F 49.6 °F 30.2 in WSW 6 mph 10 mph 92 % 0 in
16:32 52 °F 49.6 °F 30.2 in WSW 7 mph 11 mph 92 % 0 in
16:37 52 °F 49.6 °F 30.2 in West 6 mph 11 mph 92 % 0 in
16:42 51.8 °F 49.6 °F 30.2 in West 5 mph 11 mph 92 % 0 in
16:47 51.8 °F 49.6 °F 30.2 in WNW 4 mph 11 mph 92 % 0 in
16:52 51.8 °F 49.3 °F 30.2 in WNW 4 mph 11 mph 91 % 0 in
16:57 51.8 °F 49.3 °F 30.2 in WSW 7 mph 11 mph 91 % 0 in
17:02 51.8 °F 49.3 °F 30.2 in West 6 mph 11 mph 91 % 0 in
17:07 51.6 °F 49.1 °F 30.2 in WSW 6 mph 11 mph 91 % 0 in
17:12 51.6 °F 49.1 °F 30.2 in West 2 mph 11 mph 91 % 0 in
17:17 51.6 °F 49.1 °F 30.2 in West 3 mph 9 mph 91 % 0 in
17:22 51.6 °F 49.1 °F 30.2 in West 2 mph 9 mph 91 % 0 in
17:32 51.6 °F 49.1 °F 30.2 in West 3 mph 9 mph 91 % 0 in
17:37 51.4 °F 48.9 °F 30.2 in WSW 6 mph 9 mph 91 % 0 in
17:42 51.4 °F 48.9 °F 30.2 in West 5 mph 9 mph 91 % 0 in
17:52 51.3 °F 49.1 °F 30.2 in WSW 3 mph 9 mph 92 % 0 in
17:57 51.3 °F 48.7 °F 30.2 in West 3 mph 9 mph 91 % 0 in
18:02 51.3 °F 48.7 °F 30.2 in West 5 mph 9 mph 91 % 0 in
18:07 51.1 °F 48.6 °F 30.2 in WSW 7 mph 8 mph 91 % 0 in
18:12 51.1 °F 48.9 °F 30.2 in WSW 2 mph 8 mph 92 % 0 in
18:17 51.1 °F 48.9 °F 30.2 in WSW 1 mph 8 mph 92 % 0 in
18:22 51.1 °F 48.9 °F 30.2 in West 4 mph 8 mph 92 % 0 in
18:27 50.9 °F 48.7 °F 30.2 in West 3 mph 8 mph 92 % 0 in
18:32 50.7 °F 48.6 °F 30.2 in West 3 mph 6 mph 92 % 0 in
18:37 50.7 °F 48.7 °F 30.2 in West 4 mph 6 mph 93 % 0 in
18:42 50.5 °F 48.6 °F 30.2 in WNW 2 mph 5 mph 93 % 0 in
18:47 50.5 °F 48.6 °F 30.2 in WNW 3 mph 5 mph 93 % 0 in
18:57 50.4 °F 48.4 °F 30.2 in West 2 mph 5 mph 93 % 0 in
19:02 50.4 °F 48.4 °F 30.2 in West 2 mph 5 mph 93 % 0 in
19:07 50.4 °F 48.4 °F 30.2 in West 2 mph 5 mph 93 % 0 in
19:12 50.4 °F 48.4 °F 30.2 in WSW 4 mph 5 mph 93 % 0 in
19:17 50.2 °F 48.6 °F 30.2 in WSW 3 mph 5 mph 94 % 0 in
19:22 50.2 °F 48.6 °F 30.2 in West 3 mph 5 mph 94 % 0 in
19:27 50.2 °F 48.6 °F 30.2 in SW 2 mph 7 mph 94 % 0 in
19:32 50 °F 48.4 °F 30.2 in West 3 mph 7 mph 94 % 0 in
19:37 49.8 °F 48.2 °F 30.2 in WSW 4 mph 6 mph 94 % 0 in
19:42 49.8 °F 48.4 °F 30.2 in WNW 2 mph 6 mph 95 % 0 in
19:47 49.8 °F 48.4 °F 30.2 in West 3 mph 6 mph 95 % 0 in
19:52 49.8 °F 48.4 °F 30.2 in West 3 mph 6 mph 95 % 0 in
19:57 49.6 °F 48.2 °F 30.2 in West 2 mph 6 mph 95 % 0 in
20:02 49.6 °F 48.2 °F 30.2 in West 3 mph 6 mph 95 % 0 in
20:12 49.6 °F 48.2 °F 30.2 in WSW 3 mph 7 mph 95 % 0 in
20:17 49.6 °F 48.2 °F 30.2 in WSW 4 mph 6 mph 95 % 0 in
20:22 49.5 °F 48 °F 30.2 in West 2 mph 6 mph 95 % 0 in
20:27 49.5 °F 48 °F 30.2 in West 3 mph 4 mph 95 % 0 in
20:32 49.6 °F 48.2 °F 30.2 in SW 3 mph 4 mph 95 % 0 in
20:37 49.6 °F 48 °F 30.2 in SSW 1 mph 8 mph 94 % 0 in
20:42 49.6 °F 48 °F 30.2 in WSW 4 mph 8 mph 94 % 0 in
20:47 49.6 °F 48 °F 30.2 in SW 2 mph 8 mph 94 % 0 in
20:52 49.6 °F 48 °F 30.2 in SW 2 mph 8 mph 94 % 0 in
20:57 49.6 °F 48 °F 30.2 in WSW 5 mph 8 mph 94 % 0 in
21:02 49.5 °F 47.8 °F 30.2 in WSW 3 mph 8 mph 94 % 0 in
21:07 49.5 °F 47.8 °F 30.2 in WSW 4 mph 8 mph 94 % 0 in
21:12 49.5 °F 47.8 °F 30.2 in WSW 5 mph 8 mph 94 % 0 in
21:17 49.5 °F 47.8 °F 30.2 in SW 3 mph 9 mph 94 % 0 in
21:22 49.5 °F 47.8 °F 30.2 in SSW 3 mph 9 mph 94 % 0 in
21:27 49.3 °F 47.8 °F 30.2 in WSW 6 mph 9 mph 95 % 0 in
21:32 49.3 °F 47.8 °F 30.2 in WSW 4 mph 9 mph 95 % 0 in
21:37 49.3 °F 47.7 °F 30.2 in WSW 5 mph 9 mph 94 % 0 in
21:42 49.3 °F 47.7 °F 30.2 in SW 3 mph 9 mph 94 % 0 in
21:47 49.3 °F 47.7 °F 30.2 in WSW 4 mph 8 mph 94 % 0 in
21:52 49.3 °F 47.7 °F 30.2 in WSW 2 mph 8 mph 94 % 0 in
21:57 49.3 °F 47.7 °F 30.2 in West 5 mph 6 mph 94 % 0 in
22:02 49.3 °F 47.7 °F 30.2 in WSW 6 mph 6 mph 94 % 0 in
22:07 49.3 °F 47.7 °F 30.2 in West 5 mph 7 mph 94 % 0 in
22:12 49.3 °F 47.7 °F 30.2 in WSW 6 mph 7 mph 94 % 0 in
22:17 49.3 °F 47.7 °F 30.2 in WSW 2 mph 9 mph 94 % 0 in
22:22 49.3 °F 47.7 °F 30.2 in West 3 mph 9 mph 94 % 0 in
22:27 49.3 °F 47.7 °F 30.2 in West 2 mph 10 mph 94 % 0 in
22:32 49.3 °F 47.7 °F 30.2 in West 3 mph 10 mph 94 % 0 in
22:37 49.3 °F 47.7 °F 30.2 in SSW 4 mph 11 mph 94 % 0 in
22:42 49.3 °F 47.7 °F 30.2 in SW 3 mph 11 mph 94 % 0 in
22:47 49.1 °F 47.5 °F 30.2 in West 6 mph 9 mph 94 % 0 in
22:52 49.1 °F 47.5 °F 30.2 in WSW 7 mph 9 mph 94 % 0 in
22:57 49.1 °F 47.5 °F 30.2 in SW 6 mph 13 mph 94 % 0 in
23:02 48.9 °F 47.3 °F 30.2 in West 5 mph 13 mph 94 % 0 in
23:07 48.9 °F 47.3 °F 30.2 in WSW 3 mph 13 mph 94 % 0 in
23:12 48.9 °F 47.3 °F 30.2 in West 7 mph 13 mph 94 % 0 in
23:17 48.9 °F 47.3 °F 30.2 in WSW 4 mph 10 mph 94 % 0 in
23:22 48.9 °F 47.3 °F 30.2 in WSW 4 mph 10 mph 94 % 0 in
23:27 48.9 °F 47.3 °F 30.2 in SW 7 mph 10 mph 94 % 0 in
23:32 48.9 °F 47.3 °F 30.2 in West 6 mph 10 mph 94 % 0 in
23:37 48.9 °F 47.3 °F 30.2 in WSW 7 mph 10 mph 94 % 0 in
23:42 48.9 °F 47.3 °F 30.2 in Calm   10 mph 94 % 0 in
23:47 48.9 °F 47.3 °F 30.2 in WSW 5 mph 9 mph 94 % 0 in
23:52 48.9 °F 47.3 °F 30.2 in SW 6 mph 9 mph 94 % 0 in
23:57 48.9 °F 47.3 °F 30.2 in WSW 3 mph 10 mph 94 % 0 in
Meteo18
Compliments of Weather Underground - 4 mb

Script developed by  Jim McMurry - jmcmurry@mwt.net Adapted for the template by  Wim van der Kuil - Leuven-Template.eu

You find our weather info also at:

European Weather Network

Weather Underground

Equipment we use:

Weather-station
Davis Vue

Weather-program
Meteohub

Weather-server
Raspberry PI 2 B+

Provider
1 and 1

Davis Vue

Meteohub

Raspberry PI 2 B+

1 and 1